Multibeam Report for KM1228


Ship Name: Kilo Moana
Chief Scientist: Alford, Matthew
University of Hawaii
Source Organization: Rolling Deck to Repository
Start Date: 2012-12-08
End Date: 2012-12-12


View ISO Metadata

Visit the full NCEI Bathymetry Viewer


Multibeam Bathymetry

Cruise Details

Project: The Hawaii Ocean Timeseries (HOT) Profiler
Instrument: Kongsberg EM122 and EM710

Data Quality

Number of Files: 125
Number of Records: 113694
BATHYMETRY DATA Quantity Percentage
Number of Beams 46624480 100%
Number of Good Beams 36536298 78.36%
Number of Zero Beams 0 0%
Number of Flagged Beams 10088182 21.64%
AMPLITUDE DATA Quantity Percentage
Number of Beams 46624480 100%
Number of Good Beams 36536298 78.36%
Number of Zero Beams 0 0%
Number of Flagged Beams 10088182 21.64%
SIDESCAN DATA Quantity Percentage
Number of Pixels 116422656 100%
Number of Good Pixels 62418101 53.61%
Number of Zero Pixels 0 0%
Number of Flagged Pixels 54004555 46.39%

Navigation Totals

Total Time: 115.6372 hours
Total Track Length: 891.1096 km
Average Speed: 7.706 km/hr (4.1609 knots)

Cruise Bounds

Northern Extent: 22.737299
Southern Extent: 21.2455
Western Extent: -158.6697
Eastern Extent: -157.8921

Limits

Minimum Sonar Depth 4.9524 Maximum Sonar Depth 9.7698
Minimum Altitude 0 Maximum Altitude 4894.2935
Minimum Depth 5.4994 Maximum Depth 6377.3354
Minimum Amplitude 0 Maximum Amplitude 80
Minimum Sidescan 0 Maximum Sidescan 327.49

File Information

Full Resolution Bathymetry as collected (raw): 124

Files File Size Description
0000_20121209_032845_KM122.all.mb58.gz 55.21MB Kongsberg multibeam vendor format
0001_20121209_042538_KM122.all.mb58.gz 53.00MB Kongsberg multibeam vendor format
0002_20121209_052221_KM122.all.mb58.gz 95.24MB Kongsberg multibeam vendor format
0003_20121209_061906_KM122.all.mb58.gz 55.27MB Kongsberg multibeam vendor format
0004_20121209_071601_KM122.all.mb58.gz 46.06MB Kongsberg multibeam vendor format
0005_20121209_081240_KM122.all.mb58.gz 44.63MB Kongsberg multibeam vendor format
0006_20121209_090934_KM122.all.mb58.gz 44.30MB Kongsberg multibeam vendor format
0007_20121209_100618_KM122.all.mb58.gz 44.54MB Kongsberg multibeam vendor format
0008_20121209_110311_KM122.all.mb58.gz 44.39MB Kongsberg multibeam vendor format
0009_20121209_115956_KM122.all.mb58.gz 44.31MB Kongsberg multibeam vendor format
0010_20121209_125635_KM122.all.mb58.gz 44.51MB Kongsberg multibeam vendor format
0011_20121209_135323_KM122.all.mb58.gz 44.26MB Kongsberg multibeam vendor format
0012_20121209_145009_KM122.all.mb58.gz 35.87MB Kongsberg multibeam vendor format
0013_20121210_153142_KM122.all.mb58.gz 44.25MB Kongsberg multibeam vendor format
0014_20121210_162820_KM122.all.mb58.gz 44.23MB Kongsberg multibeam vendor format
0015_20121210_172518_KM122.all.mb58.gz 44.38MB Kongsberg multibeam vendor format
0016_20121210_182158_KM122.all.mb58.gz 44.43MB Kongsberg multibeam vendor format
0017_20121210_191847_KM122.all.mb58.gz 7.66MB Kongsberg multibeam vendor format
0018_20121210_214730_KM122.all.mb58.gz 7.03MB Kongsberg multibeam vendor format
0019_20121210_220503_KM122.all.mb58.gz 44.07MB Kongsberg multibeam vendor format
0020_20121210_230450_KM122.all.mb58.gz 44.53MB Kongsberg multibeam vendor format
0021_20121211_000452_KM122.all.mb58.gz 49.88MB Kongsberg multibeam vendor format
0022_20121211_010449_KM122.all.mb58.gz 56.52MB Kongsberg multibeam vendor format
0023_20121211_020454_KM122.all.mb58.gz 50.93MB Kongsberg multibeam vendor format
0024_20121211_030457_KM122.all.mb58.gz 51.56MB Kongsberg multibeam vendor format
0025_20121211_040453_KM122.all.mb58.gz 53.80MB Kongsberg multibeam vendor format
0026_20121211_050451_KM122.all.mb58.gz 56.45MB Kongsberg multibeam vendor format
0027_20121211_060449_KM122.all.mb58.gz 54.71MB Kongsberg multibeam vendor format
0028_20121211_070452_KM122.all.mb58.gz 53.55MB Kongsberg multibeam vendor format
0029_20121211_080452_KM122.all.mb58.gz 52.93MB Kongsberg multibeam vendor format
0030_20121211_090448_KM122.all.mb58.gz 51.95MB Kongsberg multibeam vendor format
0031_20121211_100448_KM122.all.mb58.gz 53.54MB Kongsberg multibeam vendor format
0032_20121211_110451_KM122.all.mb58.gz 55.79MB Kongsberg multibeam vendor format
0033_20121211_120448_KM122.all.mb58.gz 55.71MB Kongsberg multibeam vendor format
0034_20121211_130450_KM122.all.mb58.gz 54.03MB Kongsberg multibeam vendor format
0035_20121211_140451_KM122.all.mb58.gz 52.82MB Kongsberg multibeam vendor format
0036_20121211_150456_KM122.all.mb58.gz 51.83MB Kongsberg multibeam vendor format
0037_20121211_160450_KM122.all.mb58.gz 53.15MB Kongsberg multibeam vendor format
0038_20121211_170453_KM122.all.mb58.gz 55.27MB Kongsberg multibeam vendor format
0039_20121211_180449_KM122.all.mb58.gz 55.36MB Kongsberg multibeam vendor format
0040_20121211_190454_KM122.all.mb58.gz 53.46MB Kongsberg multibeam vendor format
0041_20121211_200451_KM122.all.mb58.gz 52.48MB Kongsberg multibeam vendor format
0042_20121211_210454_KM122.all.mb58.gz 53.31MB Kongsberg multibeam vendor format
0043_20121211_220451_KM122.all.mb58.gz 55.25MB Kongsberg multibeam vendor format
0044_20121211_230451_KM122.all.mb58.gz 57.21MB Kongsberg multibeam vendor format
0045_20121212_000453_KM122.all.mb58.gz 55.37MB Kongsberg multibeam vendor format
0046_20121212_010450_KM122.all.mb58.gz 46.46MB Kongsberg multibeam vendor format
0047_20121212_015940_KM122.all.mb58.gz 53.15MB Kongsberg multibeam vendor format
0048_20121212_025942_KM122.all.mb58.gz 52.05MB Kongsberg multibeam vendor format
0049_20121212_035939_KM122.all.mb58.gz 53.49MB Kongsberg multibeam vendor format
0050_20121212_045942_KM122.all.mb58.gz 56.09MB Kongsberg multibeam vendor format
0051_20121212_055940_KM122.all.mb58.gz 57.16MB Kongsberg multibeam vendor format
0052_20121212_065937_KM122.all.mb58.gz 54.50MB Kongsberg multibeam vendor format
0053_20121212_075943_KM122.all.mb58.gz 52.22MB Kongsberg multibeam vendor format
0054_20121212_085942_KM122.all.mb58.gz 52.98MB Kongsberg multibeam vendor format
0055_20121212_095943_KM122.all.mb58.gz 53.28MB Kongsberg multibeam vendor format
0056_20121212_105940_KM122.all.mb58.gz 56.08MB Kongsberg multibeam vendor format
0057_20121212_115941_KM122.all.mb58.gz 57.53MB Kongsberg multibeam vendor format
0058_20121212_125941_KM122.all.mb58.gz 55.67MB Kongsberg multibeam vendor format
0059_20121212_135941_KM122.all.mb58.gz 53.38MB Kongsberg multibeam vendor format
0060_20121212_145938_KM122.all.mb58.gz 53.78MB Kongsberg multibeam vendor format
0061_20121212_155943_KM122.all.mb58.gz 52.77MB Kongsberg multibeam vendor format
0062_20121212_165941_KM122.all.mb58.gz 54.08MB Kongsberg multibeam vendor format
0063_20121212_175940_KM122.all.mb58.gz 56.50MB Kongsberg multibeam vendor format
0064_20121212_185937_KM122.all.mb58.gz 54.53MB Kongsberg multibeam vendor format
0065_20121212_195938_KM122.all.mb58.gz 53.13MB Kongsberg multibeam vendor format
0066_20121212_205941_KM122.all.mb58.gz 49.87MB Kongsberg multibeam vendor format
0067_20121212_215944_KM122.all.mb58.gz 46.92MB Kongsberg multibeam vendor format
0068_20121212_225942_KM122.all.mb58.gz 50.50MB Kongsberg multibeam vendor format
0069_20121212_235942_KM122.all.mb58.gz 63.27MB Kongsberg multibeam vendor format
0070_20121213_005938_KM122.all.mb58.gz 48.51MB Kongsberg multibeam vendor format
0000_20121209_032335_KM710.all.mb58.gz 55.89MB Kongsberg multibeam vendor format
0001_20121209_042335_KM710.all.mb58.gz 52.57MB Kongsberg multibeam vendor format
0002_20121209_052335_KM710.all.mb58.gz 196.13MB Kongsberg multibeam vendor format
0003_20121209_062334_KM710.all.mb58.gz 54.22MB Kongsberg multibeam vendor format
0004_20121209_072334_KM710.all.mb58.gz 44.58MB Kongsberg multibeam vendor format
0005_20121209_082335_KM710.all.mb58.gz 45.17MB Kongsberg multibeam vendor format
0006_20121209_092334_KM710.all.mb58.gz 45.71MB Kongsberg multibeam vendor format
0007_20121209_102334_KM710.all.mb58.gz 46.61MB Kongsberg multibeam vendor format
0008_20121209_112335_KM710.all.mb58.gz 46.32MB Kongsberg multibeam vendor format
0009_20121209_122335_KM710.all.mb58.gz 44.07MB Kongsberg multibeam vendor format
0010_20121209_132335_KM710.all.mb58.gz 44.38MB Kongsberg multibeam vendor format
0011_20121209_142335_KM710.all.mb58.gz 224.15MB Kongsberg multibeam vendor format
0012_20121209_152337_KM710.all.mb58.gz 17.75MB Kongsberg multibeam vendor format
0013_20121211_004848_KM710.all.mb58.gz 57.32MB Kongsberg multibeam vendor format
0014_20121211_014847_KM710.all.mb58.gz 77.89MB Kongsberg multibeam vendor format
0015_20121211_024846_KM710.all.mb58.gz 147.62MB Kongsberg multibeam vendor format
0016_20121211_034846_KM710.all.mb58.gz 49.27MB Kongsberg multibeam vendor format
0017_20121211_044847_KM710.all.mb58.gz 56.63MB Kongsberg multibeam vendor format
0018_20121211_054848_KM710.all.mb58.gz 56.58MB Kongsberg multibeam vendor format
0019_20121211_064848_KM710.all.mb58.gz 50.35MB Kongsberg multibeam vendor format
0020_20121211_074846_KM710.all.mb58.gz 48.71MB Kongsberg multibeam vendor format
0021_20121211_084846_KM710.all.mb58.gz 28.89MB Kongsberg multibeam vendor format
0022_20121211_214837_KM710.all.mb58.gz 52.42MB Kongsberg multibeam vendor format
0023_20121211_224837_KM710.all.mb58.gz 57.94MB Kongsberg multibeam vendor format
0024_20121211_234835_KM710.all.mb58.gz 56.28MB Kongsberg multibeam vendor format
0025_20121212_004834_KM710.all.mb58.gz 51.85MB Kongsberg multibeam vendor format
0026_20121212_014834_KM710.all.mb58.gz 6.91MB Kongsberg multibeam vendor format
0027_20121212_045409_KM710.all.mb58.gz 54.85MB Kongsberg multibeam vendor format
0028_20121212_055409_KM710.all.mb58.gz 58.19MB Kongsberg multibeam vendor format
0029_20121212_065408_KM710.all.mb58.gz 55.32MB Kongsberg multibeam vendor format
0030_20121212_075408_KM710.all.mb58.gz 33.27MB Kongsberg multibeam vendor format
9999.all.mb58.gz 0.86MB Kongsberg multibeam vendor format
9999_121212015702_tmp.all.mb58.gz 1.9KB Kongsberg multibeam vendor format
9999_121212025702_tmp.all.mb58.gz 50.84MB Kongsberg multibeam vendor format
9999_121212035702_tmp.all.mb58.gz 49.10MB Kongsberg multibeam vendor format
9999_121212083207_tmp.all.mb58.gz 47.10MB Kongsberg multibeam vendor format
9999_121212093207_tmp.all.mb58.gz 59.33MB Kongsberg multibeam vendor format
9999_121212103207_tmp.all.mb58.gz 49.56MB Kongsberg multibeam vendor format
9999_121212113207_tmp.all.mb58.gz 52.17MB Kongsberg multibeam vendor format
9999_121212123208_tmp.all.mb58.gz 58.04MB Kongsberg multibeam vendor format
9999_121212133207_tmp.all.mb58.gz 57.94MB Kongsberg multibeam vendor format
9999_121212143207_tmp.all.mb58.gz 57.54MB Kongsberg multibeam vendor format
9999_121212153207_tmp.all.mb58.gz 55.95MB Kongsberg multibeam vendor format
9999_121212163207_tmp.all.mb58.gz 71.36MB Kongsberg multibeam vendor format
9999_121212173207_tmp.all.mb58.gz 49.30MB Kongsberg multibeam vendor format
9999_121212183209_tmp.all.mb58.gz 53.72MB Kongsberg multibeam vendor format
9999_121212193208_tmp.all.mb58.gz 57.06MB Kongsberg multibeam vendor format
9999_121212203210_tmp.all.mb58.gz 54.76MB Kongsberg multibeam vendor format
9999_121212213207_tmp.all.mb58.gz 56.64MB Kongsberg multibeam vendor format
9999_121212223208_tmp.all.mb58.gz 64.87MB Kongsberg multibeam vendor format
9999_121212233208_tmp.all.mb58.gz 57.10MB Kongsberg multibeam vendor format
9999_121213003207_tmp.all.mb58.gz 60.58MB Kongsberg multibeam vendor format
9999_121213013208_tmp.all.mb58.gz 104.04MB Kongsberg multibeam vendor format

Metadata Files: 1

Files File Size Description
KM1228_Multibeam.xml NGDC created ISO metadata